[[{"header":{"parameterUnit":"m.s-1","parameterCategory":1,"la1":30.2991,"la2":30.254,"lo1":-89.0895,"lo2":-89.0444,"dy":0.0017,"dx":0.0017,"nx":28,"ny":28,"refTime":"2024-08-18T03:00:00:Z","depth":0,"parameterNumber":2,"parameterNumberName":"U-component_of_WINDS"},"data":[0,0,0,0,0,0,0,0,0,0,0,0,0,0,0,0,0,0,0,0,0,0,0,0,0,0,0,0,0,0,0,0,0,0,0,0,0,0,0,0,0,0,0,0,0,0,0,0,0,0,0,0,0,0,0,0,0,0,3.7872,3.7873,0,3.7984,3.7985,3.7987,3.787,3.7865,3.7861,3.7857,3.7979,3.7986,3.7994,0,0,0,0,0,0,0,0,0,0,0,0,0,3.7565,3.7571,3.7872,3.7873,3.7875,3.7984,3.7985,3.7987,3.7871,3.7865,3.786,3.7854,3.7976,3.7985,3.7994,0,0,0,0,0,0,0,0,0,0,0,0,0,3.769,3.7573,3.7872,3.783,3.7827,3.7983,3.7985,3.7987,3.7872,3.7865,3.7858,3.7852,3.7974,3.7984,3.7996,3.8201,0,0,3.803,3.8035,0,0,0,0,0,0,0,0,3.7683,3.7702,3.7834,3.7833,3.783,3.7906,3.7922,3.8059,3.7874,3.7855,3.7856,3.7849,3.7961,3.7972,3.8009,3.8207,3.8212,3.8031,3.8038,3.8043,3.8046,0,0,0,0,0,0,0,3.7675,3.7696,3.7916,3.7837,3.7834,3.7808,3.7818,3.7947,3.7945,3.7856,3.7848,3.7862,3.7958,3.7998,3.8011,3.8214,3.8031,3.8041,3.8047,3.8052,3.859,3.8597,0,0,0,0,0,0,3.767,3.769,3.7913,3.792,3.7738,3.7819,3.783,3.7889,3.7943,3.7945,3.7868,3.7857,3.7982,3.7998,3.8015,3.8261,3.8042,3.8053,3.8059,3.8583,3.8592,3.86,0,0,0,0,0,0,3.7664,3.7691,3.7908,3.7803,3.7828,3.7831,3.7898,3.7894,3.7934,3.7952,3.7952,3.7909,3.7978,3.7999,3.8156,3.8264,3.8058,3.8068,3.8574,3.8585,3.8596,3.8755,0,0,0,0,0,0,3.7655,3.7689,3.7765,3.7805,3.7834,3.8046,3.7904,3.7901,3.7953,3.7939,3.799,3.7992,3.7974,3.814,3.8167,3.8276,3.8077,3.8564,3.8579,3.8592,3.8741,3.8771,3.8797,0,0,0,0,0,3.7645,3.7807,3.777,3.7797,3.7929,3.8052,3.8069,3.8042,3.7962,3.804,3.8052,3.7991,3.8247,3.8157,3.8187,3.83,3.8557,3.8575,3.8591,3.8728,3.8765,3.8796,0,0,0,0,0,0,3.7782,3.7811,3.7771,3.795,3.7999,3.8032,3.813,3.8082,3.8157,3.8141,3.8107,3.8119,3.8287,3.8308,3.8207,3.8504,3.8389,3.8413,3.8483,3.8519,3.8546,3.8538,3.8086,0,0,0,0,0,3.7833,3.7928,3.7949,3.8105,3.8132,3.8127,3.8179,3.8154,3.8205,3.8226,3.8249,3.8303,3.8396,3.8458,3.8544,3.8742,3.8754,3.8836,3.8864,3.8886,3.8908,3.9018,3.9056,3.8656,3.8656,3.8655,0,0,3.794,3.7967,3.803,3.8134,3.8169,3.8271,3.8145,3.8258,3.8334,3.8244,3.8394,3.8413,3.8471,3.865,3.8731,3.8674,3.9021,3.8908,3.8926,3.8936,3.9039,3.9077,3.9111,3.8667,3.8665,3.8663,0,0,3.8187,3.8216,3.835,3.8388,3.8442,3.8438,3.8471,3.8511,3.852,3.8669,3.8604,3.8696,3.8855,3.89,3.8944,3.9209,3.9157,3.9238,3.9386,3.9493,3.9525,3.9553,3.9651,3.9686,3.926,3.926,3.926,0,3.8314,3.8462,3.8426,3.8544,3.8593,3.8514,3.8652,3.8691,3.8772,3.8809,3.8744,3.8944,3.8977,3.9167,3.9232,3.9269,3.9308,3.9233,3.9523,3.955,3.9576,3.9669,3.9705,3.927,3.9269,3.9268,3.9267,0,3.8616,3.8721,3.8823,3.8901,3.8962,3.9089,3.9076,3.9142,3.9112,3.9116,3.9271,3.9307,3.9401,3.9444,3.9416,3.9632,3.9595,3.9527,3.9412,3.9624,3.9711,3.9746,3.9284,3.928,3.9277,3.9275,0,0,3.8954,3.9011,3.905,3.9085,3.9139,3.9221,3.9346,3.9435,3.9494,3.9553,3.9659,3.9797,3.9734,3.9784,3.9761,3.9855,4.0067,3.9776,3.9776,3.9831,4.031,4.0363,4.0404,4.0031,4.0038,4.0043,4.0306,0,3.9205,3.9419,3.9391,3.9598,3.9696,3.9622,3.9732,3.9779,3.9786,3.9872,3.9881,3.998,3.9888,3.9918,4.0008,4.0022,4.0163,4.0002,4.0134,4.0139,4.0124,4.0449,4.0505,4.0752,4.0339,4.0345,4.0349,0,3.9526,3.9594,3.9811,3.9851,3.9891,3.999,4.0071,4.0153,4.0206,4.0205,4.0261,4.0222,4.0351,4.0231,4.041,4.0302,4.0354,4.0369,4.0378,4.0392,4.0259,4.0475,4.0829,4.0868,4.0402,4.0398,4.0394,0,3.9754,3.9901,4.0049,4.0082,4.0133,4.0204,4.0229,4.0275,4.0331,4.0403,4.0439,4.0526,4.0574,4.0643,4.063,4.0543,4.0814,4.0693,4.082,4.0821,4.0882,4.0879,4.1253,4.0911,4.0911,4.091,4.0909,0,4.0038,4.0175,4.0153,4.0245,4.0396,4.0364,4.0516,4.0532,4.0574,4.067,4.0612,4.0704,4.0679,4.0771,4.0761,4.0913,4.0935,4.094,4.0937,4.0947,4.0947,4.0983,4.0967,4.092,4.0918,4.0916,4.0914,0,4.032,4.0311,4.0469,4.0503,4.0516,4.0626,4.0657,4.0746,4.0747,4.087,4.0897,4.0902,4.1008,4.1,4.112,4.1113,4.1302,4.1276,4.1284,4.1279,4.1408,4.1397,4.1821,4.1876,4.1496,4.1499,4.1502,0,4.0504,4.0607,4.0652,4.0711,4.074,4.0836,4.0893,4.0866,4.0928,4.0997,4.1078,4.1178,4.1256,4.1429,4.1445,4.1537,4.1516,4.1658,4.1529,4.1538,4.1522,4.1517,4.1529,4.1684,4.1688,4.1692,4.1695,0,4.0832,4.0822,4.0904,4.0986,4.1055,4.1119,4.1177,4.1229,4.1208,4.1282,4.1387,4.1448,4.157,4.1671,4.1759,4.1788,4.1741,4.1734,4.1769,4.1783,4.1784,4.1788,4.1356,4.1726,4.1722,4.172,4.1718,4.1717,4.1072,4.1161,4.1207,4.1301,4.1342,4.1397,4.1483,4.1495,4.1582,4.1677,4.1656,4.1777,4.183,4.1942,4.1979,4.2076,4.2025,4.2075,4.2088,4.2102,4.2118,4.1766,4.2091,4.209,4.2089,4.2089,4.2088,0,4.1399,4.1425,4.1512,4.1594,4.167,4.1614,4.1676,4.1744,4.1849,4.1901,4.1979,4.2103,4.2201,4.2225,4.232,4.2392,4.2373,4.2419,4.2415,4.2423,4.2156,4.2117,4.2433,4.2433,4.2433,4.2433,4.2432,4.2432,4.1579,4.1727,4.1723,4.1892,4.1917,4.2032,4.2073,4.2125,4.2167,4.2307,4.2387,4.24,4.2442,4.254,4.2629,4.2633,4.2673,4.2728,4.2725,4.2475,4.2441,4.2408,4.2372,4.2736,4.2736,4.2984,4.2986,4.2988]},{"header":{"parameterUnit":"m.s-1","parameterCategory":1,"la1":30.2991,"la2":30.254,"lo1":-89.0895,"lo2":-89.0444,"dy":0.0017,"dx":0.0017,"nx":28,"ny":28,"refTime":"2024-08-18T03:00:00:Z","depth":0,"parameterNumber":3,"parameterNumberName":"V-component_of_WINDS"},"data":[0,0,0,0,0,0,0,0,0,0,0,0,0,0,0,0,0,0,0,0,0,0,0,0,0,0,0,0,0,0,0,0,0,0,0,0,0,0,0,0,0,0,0,0,0,0,0,0,0,0,0,0,0,0,0,0,0,0,-2.007,-2.0071,0,-2.0167,-2.0168,-2.0169,-2.0215,-2.0214,-2.0214,-2.0214,-2.0311,-2.0314,-2.0317,0,0,0,0,0,0,0,0,0,0,0,0,0,-1.9921,-1.9924,-2.0069,-2.0071,-2.0072,-2.0166,-2.0168,-2.0169,-2.0215,-2.0214,-2.0214,-2.0214,-2.0311,-2.0314,-2.0317,0,0,0,0,0,0,0,0,0,0,0,0,0,-1.9999,-1.9925,-2.0069,-2.0106,-2.011,-2.0166,-2.0168,-2.0169,-2.0215,-2.0214,-2.0214,-2.0214,-2.0309,-2.0313,-2.0317,-2.0343,0,0,-2.0329,-2.0331,0,0,0,0,0,0,0,0,-1.9994,-2.0004,-2.0099,-2.0104,-2.0109,-2.0178,-2.0151,-2.0227,-2.0215,-2.0175,-2.0214,-2.0214,-2.0267,-2.0274,-2.0293,-2.0347,-2.0352,-2.033,-2.0332,-2.0334,-2.0335,0,0,0,0,0,0,0,-1.9989,-2.0,-2.0108,-2.0101,-2.0106,-2.0117,-2.0128,-2.0166,-2.022,-2.0178,-2.0182,-2.0193,-2.0269,-2.0289,-2.0295,-2.0353,-2.0329,-2.0333,-2.0335,-2.0337,-2.0433,-2.0433,0,0,0,0,0,0,-1.9978,-1.9995,-2.0105,-2.0111,-2.005,-2.012,-2.0132,-2.0156,-2.022,-2.023,-2.0193,-2.0195,-2.0282,-2.0291,-2.0299,-2.0333,-2.0334,-2.0337,-2.034,-2.0433,-2.0433,-2.0434,0,0,0,0,0,0,-1.9974,-1.9987,-2.0101,-2.0054,-2.0069,-2.0122,-2.0149,-2.0158,-2.0177,-2.0231,-2.024,-2.0203,-2.0282,-2.0293,-2.0332,-2.0337,-2.0339,-2.0343,-2.0433,-2.0433,-2.0433,-2.0402,0,0,0,0,0,0,-1.997,-1.9986,-1.9997,-2.0054,-2.0072,-2.0133,-2.0149,-2.016,-2.0184,-2.0188,-2.0243,-2.0252,-2.0283,-2.0326,-2.0336,-2.0343,-2.0346,-2.0433,-2.0433,-2.0433,-2.0403,-2.0401,-2.04,0,0,0,0,0,-1.9964,-1.9983,-1.9997,-2.001,-2.0087,-2.0133,-2.0143,-2.018,-2.0185,-2.0196,-2.023,-2.025,-2.0335,-2.0329,-2.0341,-2.0349,-2.0432,-2.0433,-2.0433,-2.0404,-2.0402,-2.04,0,0,0,0,0,0,-1.9925,-1.9992,-2.0007,-2.0046,-2.0083,-2.0141,-2.0156,-2.0176,-2.0213,-2.0214,-2.0257,-2.0269,-2.0304,-2.033,-2.0323,-2.0377,-2.0385,-2.0388,-2.0359,-2.0357,-2.0356,-2.0349,-2.0349,0,0,0,0,0,-1.9921,-1.9953,-2.001,-2.0038,-2.0056,-2.0102,-2.0124,-2.0149,-2.0189,-2.0205,-2.0242,-2.028,-2.0316,-2.0338,-2.0373,-2.0407,-2.0419,-2.0418,-2.0417,-2.0415,-2.0417,-2.0437,-2.0437,-2.0435,-2.0435,-2.0435,0,0,-1.9912,-1.9953,-1.9971,-2.0031,-2.0063,-2.0096,-2.0116,-2.0149,-2.0173,-2.021,-2.0249,-2.0277,-2.0322,-2.0358,-2.0376,-2.0382,-2.042,-2.0416,-2.0414,-2.0417,-2.0437,-2.0437,-2.0437,-2.0435,-2.0435,-2.0435,0,0,-1.9913,-1.9947,-1.9975,-2.0006,-2.0055,-2.0086,-2.0092,-2.0146,-2.0167,-2.0206,-2.0235,-2.0264,-2.0323,-2.0354,-2.0378,-2.039,-2.041,-2.04,-2.0392,-2.0411,-2.0411,-2.0411,-2.0416,-2.0417,-2.0402,-2.0402,-2.0402,0,-1.9897,-1.9947,-1.9986,-2.0018,-2.0043,-2.0079,-2.0106,-2.0135,-2.0192,-2.0208,-2.0214,-2.029,-2.0322,-2.0366,-2.0369,-2.0387,-2.0395,-2.0394,-2.0408,-2.0409,-2.041,-2.0414,-2.0416,-2.04,-2.04,-2.04,-2.0401,0,-1.9924,-1.9959,-1.9975,-2.003,-2.0057,-2.0086,-2.0129,-2.0151,-2.0173,-2.0203,-2.0243,-2.0283,-2.0327,-2.0339,-2.0361,-2.0386,-2.0388,-2.04,-2.0409,-2.0408,-2.0413,-2.0415,-2.0398,-2.0399,-2.0399,-2.0399,0,0,-1.9904,-1.998,-1.9985,-2.001,-2.0066,-2.0093,-2.0124,-2.0168,-2.0186,-2.0224,-2.025,-2.03,-2.0312,-2.0338,-2.0363,-2.0379,-2.0386,-2.039,-2.0391,-2.0388,-2.0416,-2.0407,-2.0409,-2.0399,-2.04,-2.04,-2.0413,0,-1.9913,-1.9971,-2.0006,-2.0049,-2.0081,-2.0115,-2.0141,-2.0178,-2.0206,-2.0237,-2.0268,-2.0302,-2.0315,-2.0331,-2.0348,-2.0382,-2.0393,-2.0381,-2.0424,-2.0425,-2.0413,-2.0411,-2.0402,-2.0412,-2.0415,-2.0415,-2.0415,0,-1.9932,-1.997,-2.0016,-2.0068,-2.0083,-2.0106,-2.0149,-2.0178,-2.022,-2.0239,-2.0268,-2.0294,-2.0327,-2.0332,-2.0378,-2.0369,-2.0389,-2.0408,-2.0409,-2.0415,-2.0421,-2.0417,-2.0416,-2.0417,-2.0419,-2.0419,-2.0418,0,-1.9913,-1.9975,-2.0011,-2.0031,-2.0093,-2.0108,-2.0134,-2.0176,-2.02,-2.0237,-2.0253,-2.0293,-2.0315,-2.0344,-2.038,-2.0381,-2.0422,-2.043,-2.0438,-2.0437,-2.0446,-2.0445,-2.0448,-2.0458,-2.0458,-2.0457,-2.0457,0,-1.992,-1.9947,-2.0003,-2.0025,-2.0056,-2.0096,-2.0125,-2.0154,-2.0191,-2.0218,-2.0249,-2.0274,-2.0319,-2.0349,-2.0377,-2.041,-2.042,-2.0436,-2.0443,-2.0434,-2.0431,-2.0447,-2.0448,-2.0458,-2.0458,-2.0458,-2.0458,0,-1.9904,-1.9943,-1.9984,-2.0039,-2.0053,-2.0074,-2.012,-2.0142,-2.0172,-2.0206,-2.0217,-2.0263,-2.03,-2.0338,-2.0388,-2.0407,-2.0439,-2.0449,-2.0426,-2.043,-2.0436,-2.0435,-2.0449,-2.0453,-2.0459,-2.0459,-2.0459,0,-1.9907,-1.9928,-1.9985,-2.0006,-2.0032,-2.0065,-2.009,-2.0129,-2.0153,-2.0202,-2.0218,-2.0258,-2.0292,-2.035,-2.0387,-2.0426,-2.0437,-2.0439,-2.0442,-2.0432,-2.0437,-2.0435,-2.0438,-2.0437,-2.0437,-2.0437,-2.0437,0,-1.9906,-1.9924,-1.9959,-2.0,-2.0029,-2.0063,-2.0098,-2.0114,-2.016,-2.0185,-2.0224,-2.025,-2.0302,-2.034,-2.0383,-2.0409,-2.0431,-2.0435,-2.0439,-2.043,-2.0416,-2.0424,-2.0422,-2.0435,-2.0435,-2.0435,-2.0435,-2.0435,-1.99,-1.9921,-1.9964,-2.0002,-2.0032,-2.0064,-2.0088,-2.0121,-2.0154,-2.0199,-2.022,-2.0259,-2.0299,-2.0359,-2.0385,-2.0415,-2.0421,-2.0427,-2.0428,-2.0429,-2.0427,-2.041,-2.0423,-2.0423,-2.0423,-2.0423,-2.0423,0,-1.9902,-1.9931,-1.9965,-2.0014,-2.0043,-2.0061,-2.0101,-2.0124,-2.0158,-2.0194,-2.0227,-2.0271,-2.0309,-2.0349,-2.0389,-2.0406,-2.0416,-2.0415,-2.0414,-2.042,-2.0419,-2.0412,-2.0405,-2.0405,-2.0405,-2.0405,-2.0405,-2.0405,-1.9906,-1.9942,-1.9965,-2.0016,-2.0046,-2.0084,-2.0106,-2.0135,-2.0164,-2.0213,-2.0244,-2.027,-2.0308,-2.0351,-2.0386,-2.0397,-2.041,-2.0406,-2.042,-2.0419,-2.042,-2.0421,-2.0415,-2.0409,-2.0409,-2.0418,-2.0418,-2.0418]}]]